GW3580 Weather Reports


time (UTC)temp
F
wind
direction
speed
knots
gust
knots
rain 1hr
in
rain 24hr
in
rain mn
in
humidity
%
barometer
mb
20260509115000 56 331 0.0 0.0 0.00 0.00 0.00 84 1012.6
20260509114458 56 331 0.0 0.0 0.00 0.00 0.00 84 1012.7
20260509113957 57 331 0.0 0.0 0.00 0.00 0.00 83 1012.6
20260509113454 57 334 0.0 0.0 0.00 0.00 0.00 83 1012.6
20260509112951 57 334 0.0 0.0 0.00 0.00 0.00 83 1012.8
20260509112448 57 333 0.0 0.0 0.00 0.00 0.00 83 1012.6
20260509111944 57 333 0.0 0.0 0.00 0.00 0.00 82 1012.8
20260509111442 56 334 0.0 0.0 0.00 0.00 0.00 82 1012.8
20260509110940 56 333 0.0 0.0 0.00 0.00 0.00 82 1012.6
20260509110435 57 332 0.0 0.0 0.00 0.00 0.00 82 1012.8
20260509105933 57 332 0.0 0.0 0.00 0.00 0.00 82 1012.7
20260509105432 57 332 0.0 0.0 0.00 0.00 0.00 81 1012.9
20260509104928 57 331 0.0 0.0 0.00 0.00 0.00 81 1012.6
20260509104425 58 330 0.0 0.0 0.00 0.00 0.00 81 1012.7
20260509103922 58 34 0.0 0.0 0.00 0.00 0.00 81 1012.7
20260509103420 58 34 0.0 0.0 0.00 0.00 0.00 81 1012.8
20260509102918 58 34 0.0 0.0 0.00 0.00 0.00 81 1012.9
20260509102415 58 34 0.0 0.0 0.00 0.00 0.00 80 1012.8
20260509101911 58 34 0.0 0.0 0.00 0.00 0.00 79 1013.0
20260509101407 59 34 0.0 0.0 0.00 0.00 0.00 79 1012.7
20260509100905 59 34 0.0 0.0 0.00 0.00 0.00 79 1012.9
20260509100402 59 34 0.0 0.0 0.00 0.00 0.00 78 1012.9
20260509095858 60 25 0.0 0.0 0.00 0.00 0.00 77 1012.6
20260509095356 60 279 0.0 0.0 0.00 0.00 0.00 77 1012.8
20260509094853 61 250 0.0 0.0 0.00 0.00 0.00 76 1012.9
20260509094349 61 282 0.0 0.9 0.00 0.00 0.00 76 1012.7
20260509093847 61 261 1.7 1.7 0.00 0.00 0.00 76 1013.0
20260509093344 61 247 1.7 3.5 0.00 0.00 0.00 75 1012.7
20260509092843 61 264 1.7 1.7 0.00 0.00 0.00 76 1012.6
20260509092340 62 270 0.9 1.7 0.00 0.00 0.00 75 1012.6
20260509091838 62 257 2.6 3.5 0.00 0.00 0.00 75 1012.5
20260509091335 62 234 0.9 0.9 0.00 0.00 0.00 75 1012.8
20260509090832 62 234 0.9 1.7 0.00 0.00 0.00 74 1012.8
20260509090329 63 266 1.7 1.7 0.00 0.00 0.00 74 1012.8
20260509085826 63 247 2.6 3.5 0.00 0.00 0.00 74 1012.7
20260509085324 63 274 0.9 0.9 0.00 0.00 0.00 74 1012.7
20260509084820 63 258 0.9 0.9 0.00 0.00 0.00 73 1012.8
20260509084317 63 278 0.9 1.7 0.00 0.00 0.00 73 1012.5
20260509083815 64 27 0.0 0.0 0.00 0.00 0.00 73 1012.7
20260509083311 64 257 0.0 0.9 0.00 0.00 0.00 72 1012.9
20260509082808 64 236 0.9 1.7 0.00 0.00 0.00 72 1012.8
20260509082307 64 281 0.9 0.9 0.00 0.00 0.00 72 1013.0
20260509081802 64 276 0.0 0.9 0.00 0.00 0.00 72 1012.9
20260509081259 65 326 0.9 0.9 0.00 0.00 0.00 71 1013.0
20260509080757 65 247 0.9 0.9 0.00 0.00 0.00 72 1012.8
20260509080255 65 236 0.9 1.7 0.00 0.00 0.00 72 1012.8
20260509075753 65 246 2.6 3.5 0.00 0.00 0.00 71 1012.9
20260509075249 65 260 1.7 1.7 0.00 0.00 0.00 71 1013.0
20260509074746 65 257 1.7 1.7 0.00 0.00 0.00 71 1013.2
20260509074244 65 274 1.7 1.7 0.00 0.00 0.00 71 1013.1
20260509073740 66 277 0.9 1.7 0.00 0.00 0.00 71 1013.0
20260509073237 66 255 0.9 0.9 0.00 0.00 0.00 71 1012.8
20260509072733 66 1 0.0 0.0 0.00 0.00 0.00 70 1013.0
20260509072230 66 257 0.9 0.9 0.00 0.00 0.00 70 1013.0
20260509071727 66 254 1.7 1.7 0.00 0.00 0.00 70 1013.2
20260509071224 67 248 0.9 0.9 0.00 0.00 0.00 69 1013.0
20260509070721 67 267 0.9 0.9 0.00 0.00 0.00 68 1013.0
20260509070217 67 251 0.9 1.7 0.00 0.00 0.00 68 1013.0
20260509065714 67 268 0.9 1.7 0.00 0.00 0.00 67 1013.0
20260509065210 67 275 1.7 1.7 0.00 0.00 0.00 67 1012.9
20260509064707 68 269 1.7 1.7 0.00 0.00 0.00 67 1013.0
20260509064204 68 247 1.7 1.7 0.00 0.00 0.00 67 1013.1
20260509063701 68 265 2.6 3.5 0.00 0.00 0.00 67 1013.0
20260509063158 68 240 5.2 7.0 0.00 0.00 0.00 67 1012.9
20260509062655 68 268 0.9 0.9 0.00 0.00 0.00 67 1012.9
20260509062152 68 260 1.7 1.7 0.00 0.00 0.00 66 1012.9
20260509061649 68 231 1.7 3.5 0.00 0.00 0.00 66 1012.9
20260509061147 68 259 0.9 1.7 0.00 0.00 0.00 65 1012.9
20260509060644 68 244 1.7 1.7 0.00 0.00 0.00 65 1012.9
20260509060140 68 267 0.9 1.7 0.00 0.00 0.00 65 1012.8
20260509055635 68 256 1.7 1.7 0.00 0.00 0.00 65 1012.9
20260509055131 68 254 1.7 1.7 0.00 0.00 0.00 65 1012.8
20260509054628 68 269 0.0 0.0 0.00 0.00 0.00 65 1012.6
20260509054126 68 18 1.7 1.7 0.00 0.00 0.00 65 1012.7
20260509053624 68 5 0.0 0.0 0.00 0.00 0.00 64 1012.7
20260509053121 69 256 0.0 0.0 0.00 0.00 0.00 63 1012.8
20260509052619 69 255 1.7 1.7 0.00 0.00 0.00 63 1012.7
20260509052116 69 217 0.0 0.9 0.00 0.00 0.00 62 1012.9
20260509051614 68 216 0.0 0.0 0.00 0.00 0.00 63 1012.8
20260509051111 68 199 0.0 0.0 0.00 0.00 0.00 62 1012.7
20260509050608 68 207 0.0 0.0 0.00 0.00 0.00 62 1012.6
20260509050104 69 207 0.0 0.0 0.00 0.00 0.00 61 1012.7
20260509045602 69 207 0.0 0.0 0.00 0.00 0.00 60 1012.6
20260509045058 69 207 0.0 0.0 0.00 0.00 0.00 60 1012.6
20260509044555 69 206 0.0 0.0 0.00 0.00 0.00 60 1012.6
20260509044048 69 206 0.0 0.0 0.00 0.00 0.00 59 1012.3
20260509043544 70 206 0.0 0.0 0.00 0.00 0.00 58 1012.6
20260509043039 70 234 0.0 0.0 0.00 0.00 0.00 58 1012.4
20260509042536 70 239 0.0 0.0 0.00 0.00 0.00 57 1012.4
20260509042032 70 240 0.0 0.9 0.00 0.00 0.00 55 1012.3
20260509041529 71 241 0.0 0.0 0.00 0.00 0.00 54 1012.5
20260509041027 71 247 0.0 0.9 0.00 0.00 0.00 52 1012.2
20260509040525 72 254 0.9 0.9 0.00 0.00 0.00 51 1012.1
20260509040021 72 260 0.9 0.9 0.00 0.00 0.00 51 1012.3
20260509035518 72 257 0.0 0.9 0.00 0.00 0.00 50 1012.1
20260509035015 72 257 0.0 0.9 0.00 0.00 0.00 48 1011.9
20260509034513 73 261 0.0 0.9 0.00 0.00 0.00 46 1012.3
20260509034010 73 259 0.9 0.9 0.00 0.00 0.00 45 1012.0
20260509033506 73 327 0.9 0.9 0.00 0.00 0.00 43 1012.0
20260509032957 73 341 0.0 0.0 0.00 0.00 0.00 43 1012.2
20260509032455 73 322 0.0 0.0 0.00 0.00 0.00 42 1012.1
20260509031952 74 1 0.0 0.0 0.00 0.00 0.00 42 1012.1
20260509031449 75 2 0.0 0.0 0.00 0.00 0.00 41 1011.9
20260509030947 75 11 0.0 0.0 0.00 0.00 0.00 41 1011.8
20260509030445 76 24 0.0 0.0 0.00 0.00 0.00 40 1011.8
20260509025941 76 260 0.0 0.9 0.00 0.00 0.00 41 1011.9
20260509025437 77 245 1.7 3.5 0.00 0.00 0.00 40 1011.7
20260509024932 77 267 0.9 1.7 0.00 0.00 0.00 41 1011.6
20260509024429 78 265 0.9 0.9 0.00 0.00 0.00 41 1011.8
20260509023926 78 238 2.6 3.5 0.00 0.00 0.00 40 1011.7
20260509023423 79 247 0.9 0.9 0.00 0.00 0.00 39 1011.5
20260509022920 80 232 0.9 0.9 0.00 0.00 0.00 39 1011.6
20260509022417 81 249 0.9 0.9 0.00 0.00 0.00 38 1011.7
20260509021914 82 241 1.7 1.7 0.00 0.00 0.00 36 1011.4
20260509021411 82 256 0.9 0.9 0.00 0.00 0.00 35 1011.6
20260509020908 83 247 0.0 0.9 0.00 0.00 0.00 34 1011.4
20260509020407 83 227 0.0 0.9 0.00 0.00 0.00 32 1011.5
20260509015903 84 227 1.7 1.7 0.00 0.00 0.00 31 1011.4
20260509015402 84 254 0.9 1.7 0.00 0.00 0.00 29 1011.4
20260509014858 84 219 0.9 0.9 0.00 0.00 0.00 30 1011.5
20260509014355 84 228 1.7 1.7 0.00 0.00 0.00 31 1011.3
20260509013851 85 267 0.9 0.9 0.00 0.00 0.00 30 1011.5
20260509013348 85 251 1.7 1.7 0.00 0.00 0.00 29 1011.4
20260509012844 85 228 1.7 1.7 0.00 0.00 0.00 27 1011.6
20260509012341 85 75 3.5 4.3 0.00 0.00 0.00 26 1011.5
20260509011838 86 227 0.9 0.9 0.00 0.00 0.00 27 1011.4
20260509011336 86 246 2.6 3.5 0.00 0.00 0.00 28 1011.7
20260509010833 86 234 1.7 1.7 0.00 0.00 0.00 27 1011.5
20260509010330 86 257 0.9 1.7 0.00 0.00 0.00 25 1011.6
20260509005827 87 296 1.7 1.7 0.00 0.00 0.00 25 1011.6
20260509005325 87 177 1.7 1.7 0.00 0.00 0.00 26 1011.7
20260509004820 87 260 0.9 0.9 0.00 0.00 0.00 24 1011.7
20260509004316 87 214 1.7 1.7 0.00 0.00 0.00 27 1011.7
20260509003814 87 245 1.7 3.5 0.00 0.00 0.00 27 1011.8
20260509003312 87 51 0.9 0.9 0.00 0.00 0.00 27 1011.8
20260509002809 87 225 3.5 4.3 0.00 0.00 0.00 29 1011.6
20260509002307 87 275 2.6 3.5 0.00 0.00 0.00 30 1011.8
20260509001804 88 273 1.7 1.7 0.00 0.00 0.00 30 1011.8
20260509001259 88 255 2.6 3.5 0.00 0.00 0.00 28 1012.0
20260509000757 87 266 2.6 3.5 0.00 0.00 0.00 26 1011.9
20260509000256 87 254 1.7 4.3 0.00 0.00 0.00 29 1011.9
20260508235751 88 243 1.7 3.5 0.00 0.00 0.00 30 1012.1
20260508235248 87 271 4.3 5.2 0.00 0.00 0.00 30 1011.9
20260508234745 87 266 2.6 4.3 0.00 0.00 0.00 29 1011.9
20260508234241 87 254 2.6 3.5 0.00 0.00 0.00 28 1012.2
20260508233735 87 248 2.6 3.5 0.00 0.00 0.00 28 1012.1
20260508233233 87 226 6.1 7.0 0.00 0.00 0.00 28 1012.0
20260508232730 87 256 6.1 7.0 0.00 0.00 0.00 28 1012.3
20260508232226 87 245 5.2 6.1 0.00 0.00 0.00 27 1012.2
20260508231725 87 234 5.2 5.2 0.00 0.00 0.00 27 1012.5
20260508231221 87 267 6.1 7.8 0.00 0.00 0.00 27 1012.4
20260508230718 88 1 1.7 1.7 0.00 0.00 0.00 27 1012.3
20260508230214 87 292 4.3 6.1 0.00 0.00 0.00 26 1012.4
20260508225712 87 278 5.2 7.8 0.00 0.00 0.00 27 1012.5
20260508225208 87 261 3.5 6.1 0.00 0.00 0.00 26 1012.6
20260508224706 87 221 4.3 5.2 0.00 0.00 0.00 26 1012.6
20260508224203 87 275 4.3 5.2 0.00 0.00 0.00 28 1012.8
20260508223701 86 269 2.6 3.5 0.00 0.00 0.00 29 1012.9
20260508223158 87 240 2.6 3.5 0.00 0.00 0.00 27 1013.0
20260508222655 86 266 4.3 6.1 0.00 0.00 0.00 28 1013.0
20260508222153 85 263 3.5 5.2 0.00 0.00 0.00 29 1013.0
20260508221648 86 275 4.3 5.2 0.00 0.00 0.00 29 1013.3
20260508221144 86 242 3.5 6.1 0.00 0.00 0.00 30 1013.2
20260508220641 85 240 6.1 7.0 0.00 0.00 0.00 29 1013.1
20260508220138 86 297 4.3 5.2 0.00 0.00 0.00 30 1013.2
20260508215634 86 251 4.3 5.2 0.00 0.00 0.00 29 1013.4
20260508215131 87 275 2.6 3.5 0.00 0.00 0.00 31 1013.4
20260508214628 86 254 4.3 5.2 0.00 0.00 0.00 30 1013.7
20260508214125 85 269 4.3 5.2 0.00 0.00 0.00 29 1013.6
20260508213622 85 260 6.1 7.0 0.00 0.00 0.00 31 1013.8
20260508213118 85 271 3.5 4.3 0.00 0.00 0.00 30 1013.6
20260508212615 84 246 2.6 3.5 0.00 0.00 0.00 31 1013.8
20260508212111 85 240 6.1 9.6 0.00 0.00 0.00 30 1013.7
20260508211606 84 276 2.6 3.5 0.00 0.00 0.00 32 1013.8
20260508211103 85 273 1.7 1.7 0.00 0.00 0.00 33 1013.9
20260508210559 83 252 2.6 4.3 0.00 0.00 0.00 34 1014.0
20260508210057 84 272 5.2 7.0 0.00 0.00 0.00 35 1014.2
20260508205554 84 271 2.6 3.5 0.00 0.00 0.00 36 1014.0
20260508205050 83 261 1.7 1.7 0.00 0.00 0.00 35 1014.0
20260508204547 84 288 4.3 6.1 0.00 0.00 0.00 33 1014.0
20260508204043 83 256 0.9 0.9 0.00 0.00 0.00 35 1013.9
20260508203539 83 248 1.7 1.7 0.00 0.00 0.00 35 1014.4
20260508203035 84 256 1.7 1.7 0.00 0.00 0.00 35 1014.3
20260508202532 83 255 1.7 1.7 0.00 0.00 0.00 34 1014.3
20260508202029 83 259 1.7 3.5 0.00 0.00 0.00 36 1014.1
20260508201526 83 334 0.9 1.7 0.00 0.00 0.00 36 1014.3
20260508201022 82 312 3.5 4.3 0.00 0.00 0.00 37 1014.4
20260508200520 82 277 1.7 3.5 0.00 0.00 0.00 35 1014.5
20260508200015 82 227 4.3 5.2 0.00 0.00 0.00 38 1014.6
20260508195512 82 333 0.0 0.0 0.00 0.00 0.00 37 1014.5
20260508195008 82 246 1.7 1.7 0.00 0.00 0.00 36 1014.9
20260508194506 81 303 5.2 5.2 0.00 0.00 0.00 39 1014.9
20260508194003 80 257 2.6 3.5 0.00 0.00 0.00 40 1015.1
20260508193459 80 203 2.6 3.5 0.00 0.00 0.00 39 1015.0
20260508192955 80 244 3.5 4.3 0.00 0.00 0.00 40 1015.1
20260508192452 80 265 3.5 4.3 0.00 0.00 0.00 39 1014.9
20260508191949 80 217 0.9 0.9 0.00 0.00 0.00 40 1015.0
20260508191446 80 240 2.6 3.5 0.00 0.00 0.00 40 1014.9
20260508190943 79 260 2.6 3.5 0.00 0.00 0.00 42 1015.0
20260508190441 80 242 2.6 3.5 0.00 0.00 0.00 42 1015.1
20260508185936 79 245 4.3 5.2 0.00 0.00 0.00 42 1015.2
20260508185434 78 245 1.7 3.5 0.00 0.00 0.00 44 1015.1
20260508184931 78 273 4.3 6.1 0.00 0.00 0.00 42 1015.4
20260508184429 78 251 5.2 6.1 0.00 0.00 0.00 43 1015.3
20260508183925 78 239 3.5 4.3 0.00 0.00 0.00 43 1015.6
20260508183422 78 256 2.6 4.3 0.00 0.00 0.00 45 1015.5
20260508182917 78 276 1.7 1.7 0.00 0.00 0.00 45 1015.5
20260508182415 78 266 0.9 0.9 0.00 0.00 0.00 45 1015.6
20260508181909 77 208 1.7 1.7 0.00 0.00 0.00 47 1015.6
20260508181407 77 244 1.7 1.7 0.00 0.00 0.00 47 1015.6
20260508180904 77 260 1.7 3.5 0.00 0.00 0.00 48 1015.6
20260508180401 76 236 1.7 1.7 0.00 0.00 0.00 50 1015.8
20260508175856 76 273 4.3 6.1 0.00 0.00 0.00 49 1015.8
20260508175353 75 299 1.7 3.5 0.00 0.00 0.00 51 1015.9
20260508174851 75 271 2.6 4.3 0.00 0.00 0.00 51 1016.0
20260508174348 75 297 1.7 1.7 0.00 0.00 0.00 51 1015.9
20260508173845 74 256 3.5 4.3 0.00 0.00 0.00 52 1015.9
20260508173342 74 274 1.7 3.5 0.00 0.00 0.00 53 1015.8
20260508172838 73 254 4.3 6.1 0.00 0.00 0.00 55 1015.7
20260508172335 73 268 2.6 4.3 0.00 0.00 0.00 55 1015.9
20260508171831 73 318 1.7 1.7 0.00 0.00 0.00 55 1016.0
20260508171328 73 255 3.5 3.5 0.00 0.00 0.00 56 1016.0
20260508170825 72 260 0.9 0.9 0.00 0.00 0.00 58 1015.9
20260508170323 71 306 0.9 1.7 0.00 0.00 0.00 58 1015.8
20260508165819 71 271 0.9 0.9 0.00 0.00 0.00 58 1015.8
20260508165317 70 312 1.7 1.7 0.00 0.00 0.00 58 1015.8
20260508164812 70 278 3.5 4.3 0.00 0.00 0.00 59 1015.9
20260508164309 69 247 2.6 3.5 0.00 0.00 0.00 60 1016.0
20260508163808 70 235 1.7 1.7 0.00 0.00 0.00 59 1015.9
20260508163305 69 195 1.7 3.5 0.00 0.00 0.00 60 1016.0
20260508162801 69 250 4.3 5.2 0.00 0.00 0.00 62 1016.0
20260508162257 68 281 4.3 5.2 0.00 0.00 0.00 62 1016.0
20260508161754 69 267 4.3 5.2 0.00 0.00 0.00 62 1016.0
20260508161252 68 285 1.7 1.7 0.00 0.00 0.00 64 1015.9
20260508160749 68 253 2.6 3.5 0.00 0.00 0.00 64 1016.1
20260508160247 67 306 0.9 0.9 0.00 0.00 0.00 65 1016.2
20260508155744 67 271 1.7 1.7 0.00 0.00 0.00 66 1016.1
20260508155241 66 267 0.9 0.9 0.00 0.00 0.00 67 1015.9
20260508154737 66 250 2.6 3.5 0.00 0.00 0.00 67 1016.1
20260508154235 66 260 2.6 3.5 0.00 0.00 0.00 68 1016.1
20260508153726 65 242 1.7 1.7 0.00 0.00 0.00 69 1016.1
20260508153223 64 265 0.9 1.7 0.00 0.00 0.00 71 1016.4
20260508152720 63 271 0.9 1.7 0.00 0.00 0.00 72 1016.1
20260508152215 62 246 1.7 3.5 0.00 0.00 0.00 73 1016.0
20260508151712 62 266 1.7 3.5 0.00 0.00 0.00 74 1015.9
20260508151209 62 261 4.3 4.3 0.00 0.00 0.00 74 1016.3
20260508150706 61 241 2.6 3.5 0.00 0.00 0.00 74 1015.8
20260508150203 61 271 0.9 0.9 0.00 0.00 0.00 75 1016.1
20260508145658 61 258 0.9 0.9 0.00 0.00 0.00 75 1016.1
20260508145154 60 259 1.7 1.7 0.00 0.00 0.00 75 1016.0
20260508144652 60 60 0.0 0.0 0.00 0.00 0.00 76 1016.0
20260508144150 60 267 1.7 1.7 0.00 0.00 0.00 77 1016.0
20260508143647 59 259 0.9 0.9 0.00 0.00 0.00 77 1016.1
20260508143144 59 241 0.9 1.7 0.00 0.00 0.00 77 1016.0
20260508142640 59 265 3.5 4.3 0.00 0.00 0.00 77 1015.8
20260508142137 59 249 2.6 3.5 0.00 0.00 0.00 77 1015.8
20260508141633 59 257 0.9 0.9 0.00 0.00 0.00 77 1015.7
20260508141131 59 269 0.9 0.9 0.00 0.00 0.00 77 1015.7
20260508140629 59 322 0.9 0.9 0.00 0.00 0.00 79 1015.6
20260508140125 58 258 2.6 3.5 0.00 0.00 0.00 80 1015.3
20260508135620 58 291 1.7 1.7 0.00 0.00 0.00 80 1015.4
20260508135117 57 277 1.7 1.7 0.00 0.00 0.00 82 1015.4
20260508134614 57 301 0.9 0.9 0.00 0.00 0.00 82 1015.5
20260508134111 57 25 0.0 0.0 0.00 0.00 0.00 82 1015.2
20260508133607 57 35 0.0 0.0 0.00 0.00 0.00 81 1015.2
20260508133105 56 39 0.0 0.0 0.00 0.00 0.00 82 1015.3
20260508132603 56 51 0.0 0.0 0.00 0.00 0.00 81 1015.1
20260508132059 56 51 0.0 0.0 0.00 0.00 0.00 81 1015.2
20260508131554 56 51 0.0 0.0 0.00 0.00 0.00 81 1015.1
20260508131052 56 51 0.0 0.0 0.00 0.00 0.00 81 1014.9
20260508130548 56 52 0.0 0.0 0.00 0.00 0.00 81 1015.0
20260508130045 56 52 0.0 0.0 0.00 0.00 0.00 80 1015.1
20260508125540 57 52 0.0 0.0 0.00 0.00 0.00 80 1014.9
20260508125038 57 52 0.0 0.0 0.00 0.00 0.00 80 1014.9
20260508124536 57 52 0.0 0.9 0.00 0.00 0.00 80 1014.8
20260508124033 57 50 0.0 0.0 0.00 0.00 0.00 80 1014.7
20260508123532 57 36 0.0 0.0 0.00 0.00 0.00 80 1014.8
20260508123028 57 35 0.0 0.0 0.00 0.00 0.00 79 1014.6
20260508122525 58 38 0.0 0.9 0.00 0.00 0.00 79 1014.8
20260508122022 58 38 0.9 0.9 0.00 0.00 0.00 79 1014.7
20260508121520 59 33 0.0 0.9 0.00 0.00 0.00 79 1014.6
20260508121018 59 340 0.0 0.0 0.00 0.00 0.00 79 1014.5
20260508120515 59 1 0.0 0.0 0.00 0.00 0.00 79 1014.5
20260508120013 59 274 0.9 0.9 0.00 0.00 0.00 79 1014.7
20260508115510 59 330 0.0 0.0 0.00 0.00 0.00 78 1014.6